Flag for Cyprus Weather past 2 weeks in Larnaca, Cyprus

Now
84 °F

Passing clouds.


Feels Like: 91 °F
Forecast: 74 / 94 °F
Wind: 16 mph from Southwest

Location: Larnaca Airport

Current Time: Jul 22, 2014 at 6:06:23 PM

Latest Report: Jul 22, 2014 at 5:30 PM


Visibility: N/A

Pressure: 29.71 "Hg

Humidity: 70%

Dew point: 73 °F

Location of LarnacaLocation

Historic Weather in Larnaca — Graph

°F

Larnaca temperature yesterday

Maximum temperature yesterday: 88 °F (at 1:00 PM)
Minimum temperature yesterday: 72 °F (at 5:30 AM)
Average temperature yesterday: 80 °F

Past Weeks' High & Low Weather Summary

 TemperatureHumidityPressure
High93 °F (Jul 7, 5:00 PM)100% (Jul 21, 4:30 AM)29.83 "Hg (Jul 21, 4:30 AM)
Low70 °F (Jul 19, 5:30 AM)33% (Jul 8, 4:00 PM)29.59 "Hg (Jul 20, 4:30 PM)
Average81 °F70%29.72 "Hg
* Reported Jul 7 5:00 PM — Jul 22 5:00 PM, Larnaca, Weather by CustomWeather, © 2014

Note: Actual official high and low records may vary slightly from our data, if they occured in-between our weather recording intervals... More about our weather records

Advertising

Larnaca weather history for previous 24 hours

 ConditionsComfort  
Time TempWeatherWind HumidityBarometerVisibility
5:00 PM
Jul 22
84 °FPassing clouds.18 mph70%29.71 "HgN/A
4:30 PM86 °FPassing clouds.17 mph66%29.71 "HgN/A
4:00 PM84 °FPassing clouds.18 mph70%29.74 "HgN/A
3:30 PM86 °FPassing clouds.18 mph66%29.74 "HgN/A
3:00 PM88 °FPassing clouds.18 mph59%29.74 "HgN/A
2:30 PM88 °FPassing clouds.17 mph59%29.74 "HgN/A
2:00 PM88 °FPassing clouds.15 mph59%29.74 "HgN/A
1:30 PM88 °FPassing clouds.16 mph59%29.74 "HgN/A
1:00 PM88 °FPassing clouds.16 mph59%29.74 "HgN/A
12:30 PM86 °FPassing clouds.16 mph62%29.74 "HgN/A
12:00 PM88 °FPassing clouds.14 mph59%29.74 "HgN/A
11:30 AM86 °FPassing clouds.13 mph62%29.74 "HgN/A
11:00 AM86 °FPassing clouds.12 mph62%29.74 "HgN/A
10:30 AM86 °FPassing clouds.12 mph59%29.74 "HgN/A
10:00 AM84 °FPassing clouds.10 mph66%29.74 "HgN/A
9:30 AM84 °FPassing clouds.9 mph66%29.74 "HgN/A
9:00 AM82 °FSunny.9 mph70%29.74 "Hg10 mi
8:30 AM81 °FClear.8 mph74%29.74 "Hg5 mi
8:00 AM79 °FPassing clouds.9 mph84%29.71 "Hg4 mi
7:30 AM77 °FPassing clouds.7 mph89%29.74 "Hg4 mi
7:00 AM75 °FFog.3 mph94%29.71 "Hg3 mi
6:30 AM73 °FFog.2 mph94%29.71 "Hg3 mi
6:00 AM72 °FFog.3 mph94%29.71 "Hg2 mi
5:30 AM73 °FFog.2 mph94%29.71 "Hg3 mi
5:00 AM73 °FFog.3 mph94%29.71 "Hg3 mi
4:30 AM73 °FFog.5 mph94%29.68 "Hg3 mi
4:00 AM73 °FFog.6 mph94%29.68 "Hg3 mi
3:30 AM73 °FClear.2 mph94%29.71 "Hg4 mi
3:00 AM73 °FClear.5 mph94%29.68 "Hg4 mi
2:30 AM75 °FClear.3 mph89%29.68 "Hg4 mi
2:00 AM75 °FClear.5 mph89%29.68 "Hg4 mi
1:30 AM75 °FClear.5 mph89%29.71 "Hg4 mi
1:00 AM75 °FClear.3 mph94%29.71 "Hg4 mi
12:30 AM75 °FClear.6 mph94%29.71 "Hg4 mi
12:00 AM77 °FClear.7 mph89%29.71 "Hg4 mi
11:30 PM
Jul 21
77 °FClear.9 mph89%29.71 "Hg4 mi
11:00 PM77 °FClear.8 mph89%29.71 "Hg4 mi
10:30 PM77 °FClear.13 mph89%29.68 "Hg5 mi
10:00 PM77 °FClear.13 mph89%29.68 "Hg5 mi
9:30 PM79 °FClear.15 mph84%29.68 "Hg5 mi
9:00 PM79 °FClear.16 mph84%29.68 "Hg10 mi
8:30 PM79 °FPassing clouds.18 mph84%29.68 "HgN/A
8:00 PM79 °FPassing clouds.18 mph84%29.65 "HgN/A
7:30 PM79 °FPassing clouds.20 mph84%29.65 "HgN/A
7:00 PM81 °FPassing clouds.22 mph79%29.65 "HgN/A
6:30 PM82 °FPassing clouds.23 mph70%29.65 "HgN/A
6:00 PM84 °FPassing clouds.22 mph70%29.65 "HgN/A
Weather by CustomWeather, © 2014

See weather overviewHow to use our weather pages